FUNCUBE-1 (AO-73)

Last updated on Mon Sep 15 2025 00:03:09 GMT+0000 (Coordinated Universal Time)

1 39444U 13066AE 25257.15410327 .00006405 00000+0 46341-3 0 9999 2 39444 97.7927 219.5579 0043528 62.4694 298.0944 15.03601131638091
UTC large
Height (km)
Speed (km/s)
/
Latitude / Longitude
Inclination (degrees)
Orbital Period (minutes)
Azimuth
Elevation
Range (km)
Doppler Factor

Next 0 passes for location: London (51.5072 / 0.1276)

Sorry there are no passes over London.